Notices

What's New in latest Release from April 7th, 2021:

- Updated Glossary, including Speed of Maximum Gust, and Total Hourly Precipitation

- Updated national and regional climate services offices contacts and prices information

- Addition of station inventory lists for 1981-2010, 1971-2000, and 1961-1990 Normals.

If you haven't already, please take our survey and provide feedback about our website: https://eccc.sondage-survey.ca/f/LanguageSelection.aspx?s=442ca660-fcf1-47c0-95a9-59707d6fd709

Hourly Data Report for January 15, 2006

TORONTO CITY
ONTARIO

43°40'00.000" N
79°24'00.000" W
112.50 m
6158355
71508
XTO

Download Data

Hourly Data (January 2006)
Hourly Data Report for January 15, 2006
TIME
LST
Temp Definition
°C
Dew Point Definition
°C
Rel Hum Definition
%
Precip. Amount Definition
mm

Wind Dir Definition
10's deg

Wind Spd Definition
km/h
Visibility Definition
km
Stn Press Definition
kPa
Hmdx Definition


Wind Chill Definition


Weather Definition


00:00 -7.4 -13.8 60   LegendMM LegendMM   100.08     LegendNANA
01:00 -7.6 -13.9 61   LegendMM LegendMM   100.04     LegendNANA
02:00 -7.5 -13.2 64   LegendMM LegendMM   100.07     LegendNANA
03:00 -7.3 -12.3 67   LegendMM LegendMM   100.13     LegendNANA
04:00 -7.7 -12.1 71   LegendMM LegendMM   100.15     LegendNANA
05:00 -8.3 -12.7 71   LegendMM LegendMM   100.20     LegendNANA
06:00 -9.4 -14.0 69   LegendMM LegendMM   100.25     LegendNANA
07:00 -10.2 -15.8 63   LegendMM LegendMM   100.27     LegendNANA
08:00 -10.8 -18.0 55   LegendMM LegendMM   100.36     LegendNANA
09:00 -11.7 -19.5 52   LegendMM LegendMM   100.43     LegendNANA
10:00 -11.7 -18.6 57   LegendMM LegendMM   100.48     LegendNANA
11:00 -10.9 -18.5 53   LegendMM LegendMM   100.49     LegendNANA
12:00 -10.4 -18.9 50   LegendMM LegendMM   100.46     LegendNANA
13:00 -10.3 -19.9 45   LegendMM LegendMM   100.39     LegendNANA
14:00 -9.1 -17.2 52   LegendMM LegendMM   100.35     LegendNANA
15:00 -8.8 -16.3 55   LegendMM LegendMM   100.37     LegendNANA
16:00 -8.8 -16.4 54   LegendMM LegendMM   100.39     LegendNANA
17:00 -9.0 -15.5 59   LegendMM LegendMM   100.37     LegendNANA
18:00 -9.5 -15.4 62   LegendMM LegendMM   100.40     LegendNANA
19:00 -10.1 -15.5 65   LegendMM LegendMM   100.41     LegendNANA
20:00 -10.5 -17.2 58   LegendMM LegendMM   100.43     LegendNANA
21:00 -10.8 -17.5 58   LegendMM LegendMM   100.40     LegendNANA
22:00 -10.8 -17.9 56   LegendMM LegendMM   100.39     LegendNANA
23:00 -11.1 -17.7 58   LegendMM LegendMM   100.38     LegendNANA

Notes on Data Quality.

Legend

  • E = Estimated
  • M = Missing
  • NA = Not Available*
  • [empty] = Indicates an unobserved value
Date modified: